Location: Peterborough
(44.3091°N, 78.3197°W)
Time: 02:09:35
(UTC-04:00)

Envisat - Visible Passes

Search period start: 08 June 2023 00:00
Search period end: 18 June 2023 00:00
Orbit: 763 x 765 km, 98.2° (Epoch: 07 June)

Date Brightness Start Highest point End Pass type
(mag) Time Alt. Az. Time Alt. Az. Time Alt. Az.
08 Jun 5.6 03:45:15 10° ENE 03:47:47 14° E 03:50:18 10° ESE visible
09 Jun 3.9 04:45:13 10° NNE 04:50:10 50° E 04:55:04 10° S visible
10 Jun 5.1 04:08:44 10° NE 04:12:46 23° E 04:16:46 10° SE visible
11 Jun 5.9 03:34:34 10° E 03:35:10 10° E 03:35:46 10° E visible
12 Jun 4.3 04:32:54 10° NNE 04:37:39 39° E 04:42:22 10° SSE visible
13 Jun 5.4 03:56:45 10° NE 04:00:13 18° E 04:03:38 10° SE visible
15 Jun 4.7 04:20:41 10° NE 04:25:08 30° E 04:29:34 10° SSE visible
16 Jun 5.6 03:45:01 10° ENE 03:47:37 14° E 03:50:12 10° ESE visible
17 Jun 3.9 04:45:01 10° NNE 04:49:59 51° E 04:54:54 10° S visible
